Location: Newark
(33.6333°S, 78.8500°W)
Time: 22:15:19
(UTC+00:00)

Tiros 1 despin weight - Pass Details

Date: 26 September 2019
Orbit: 594 x 643 km, 48.2° (Epoch: 15 October)

Event Time Altitude Azimuth Distance (km) Brightness Sun altitude
Rises 06:39:19 0° 231° (SW) 2,915 - -49.0°
Reaches altitude 10° 06:42:45 10° 204° (SSW) 2,019 - -48.5°
Maximum altitude 06:45:08 14° 173° (S) 1,787 - -48.2°
Drops below altitude 10° 06:47:33 10° 142° (SE) 2,033 - -47.9°
Exits shadow 06:50:49 - 117° (ESE) 2,887 ? -47.5°
Sets 06:51:01 0° 116° (ESE) 2,949 ? -47.5°
